Weather reports worldwide

Advertisment
Dresden-Klotzsche, Germany (10488): temperature & dewpoint: 19.03.2019 18:00:00 - 25.03.2019 18:00:00 (CET)Dresden-Klotzsche, Germany (10488): temperature 5cm & temperature -5cm: 19.03.2019 18:00:00 - 25.03.2019 18:00:00 (CET)Dresden-Klotzsche, Germany (10488): temperature -20cm & temperature -100cm: 19.03.2019 18:00:00 - 25.03.2019 18:00:00 (CET)Dresden-Klotzsche, Germany (10488): wind speed & gusts: 19.03.2019 18:00:00 - 25.03.2019 18:00:00 (CET)Dresden-Klotzsche, Germany (10488): wind direction: 19.03.2019 18:00:00 - 25.03.2019 18:00:00 (CET)Dresden-Klotzsche, Germany (10488): reduced air pressure: 19.03.2019 18:00:00 - 25.03.2019 18:00:00 (CET)Dresden-Klotzsche, Germany (10488): visibility: 19.03.2019 18:00:00 - 25.03.2019 18:00:00 (CET)Dresden-Klotzsche, Germany (10488): sunshine duration: 19.03.2019 18:00:00 - 25.03.2019 18:00:00 (CET)Dresden-Klotzsche, Germany (10488): precipitation: 19.03.2019 18:00:00 - 25.03.2019 18:00:00 (CET)
Date & Time tt [°C] td [°C] tt 5cm [°C] tt -5cm [°C] tt -20cm [°C] tt -100cm [°C] ff [km/h] ff [kn] fx [km/h] fx [kn] dd ppp [hPa] vv [km] sd [min] rr [mm]
25.03.2019 18:00:00 - - - - - - - - - - - - - - -
25.03.2019 17:00:00 3,8 2,5 4,1 7,5 7,9 7,7 11 6 40 22 WNW 1016,9 10 0 0,6
25.03.2019 16:00:00 5,3 1,2 5,9 8,3 7,8 7,7 14 8 47 25 WNW 1016,0 40 0 0,0
25.03.2019 15:00:00 6,9 0,0 7,5 8,9 7,5 7,7 26 14 48 26 WNW 1014,9 10 36 0,0
25.03.2019 14:00:00 7,6 -0,6 10,9 8,0 7,2 7,7 24 13 51 27 NW 1014,4 10 39 0,0
25.03.2019 13:00:00 6,6 1,0 8,0 7,0 7,1 7,7 28 15 51 27 WNW 1014,6 10 25 0,0
25.03.2019 12:00:00 4,7 2,4 7,9 6,1 7,0 7,7 15 8 62 34 WNW 1014,9 10 22 1,2
25.03.2019 11:00:00 4,2 2,1 4,8 5,8 7,0 7,7 22 12 49 27 WNW 1015,1 10 0 0,3
25.03.2019 10:00:00 3,3 2,0 3,2 5,9 7,1 7,7 26 14 55 30 W 1014,8 10 0 0,4
25.03.2019 09:00:00 4,2 0,7 4,2 5,8 7,1 7,7 21 11 52 28 W 1014,4 10 1 0,0
25.03.2019 08:00:00 4,6 -0,6 4,8 5,5 7,2 7,7 18 10 37 20 WSW 1014,4 10 40 0,0
25.03.2019 07:00:00 4,0 -0,2 2,9 5,3 7,4 7,7 13 7 31 17 WSW 1015,0 10 11 0,0
25.03.2019 06:00:00 4,0 0,4 2,9 5,4 7,6 7,7 11 6 22 12 WSW 1015,9 10 0 0,0
25.03.2019 05:00:00 3,4 -0,1 2,2 5,4 7,8 7,7 9 5 16 9 SW 1016,6 10 0 0,0
25.03.2019 04:00:00 3,3 0,1 0,4 6,0 8,1 7,7 8 4 24 13 WSW 1017,4 10 0 0,0
25.03.2019 03:00:00 4,6 0,6 3,1 6,4 8,3 7,7 14 8 22 12 W 1018,1 14 0 0,0
25.03.2019 02:00:00 4,3 2,8 2,9 6,8 8,5 7,7 8 4 18 10 WNW 1018,8 9 0 0,0
25.03.2019 01:00:00 4,8 3,6 3,9 7,1 8,7 7,7 9 5 16 9 WNW 1019,3 9 0 0,0
25.03.2019 00:00:00 5,4 3,7 3,9 7,5 8,9 7,6 8 4 22 12 W 1020,0 10 0 0,0
24.03.2019 23:00:00 6,2 3,6 5,0 7,7 9,1 7,6 8 4 21 11 W 1020,2 10 0 0,0
24.03.2019 22:00:00 6,1 3,6 3,9 8,1 9,3 7,6 9 5 16 9 W 1020,7 10 0 0,0
24.03.2019 21:00:00 6,4 4,1 5,2 8,5 9,5 7,6 4 2 16 9 - 1021,3 10 0 0,0
24.03.2019 20:00:00 7,0 4,5 4,9 9,1 9,7 7,6 10 5 18 10 W 1021,6 16 0 0,0
24.03.2019 19:00:00 7,9 4,0 7,0 9,8 9,8 7,6 9 5 18 10 WNW 1021,8 10 0 0,0
24.03.2019 18:00:00 8,6 3,7 8,3 10,2 9,9 7,6 8 4 15 8 W 1021,7 10 0 0,0
24.03.2019 17:00:00 8,9 3,3 9,0 10,5 10,0 7,6 8 4 15 8 NNW 1022,3 10 0 0,0
24.03.2019 16:00:00 9,1 3,1 9,6 10,9 9,9 7,5 8 4 13 7 NW 1022,6 10 0 0,0
24.03.2019 15:00:00 9,5 3,4 10,3 11,2 9,9 7,5 8 4 16 9 N 1023,0 10 0 0,0
24.03.2019 14:00:00 9,5 3,2 10,5 11,5 9,7 7,5 9 5 13 7 NNW 1023,5 25 0 0,0
24.03.2019 13:00:00 10,0 2,9 12,2 11,3 9,4 7,5 3 2 16 9 E 1024,2 25 0 0,0
24.03.2019 12:00:00 9,6 2,7 12,2 10,6 9,2 7,5 5 3 16 9 NE 1025,1 25 0 0,0
24.03.2019 11:00:00 9,0 3,6 10,5 9,8 9,1 7,5 4 2 13 7 - 1025,9 10 0 0,0
24.03.2019 10:00:00 8,0 4,0 9,1 9,1 9,1 7,4 5 3 9 5 ENE 1026,4 10 0 0,0
24.03.2019 09:00:00 7,4 4,9 8,3 8,7 9,1 7,4 5 3 8 4 N 1027,0 10 0 0,0
24.03.2019 08:00:00 7,0 5,3 7,2 8,6 9,2 7,4 4 2 8 4 - 1027,3 7 0 0,0
24.03.2019 07:00:00 7,0 5,4 6,9 8,6 9,4 7,4 4 2 9 5 NNE 1027,3 6 0 0,0
24.03.2019 06:00:00 6,8 5,7 6,6 8,6 9,5 7,4 8 4 11 6 NE 1027,5 5 0 0,0
24.03.2019 05:00:00 6,8 6,0 6,5 8,8 9,6 7,3 8 4 11 6 NNE 1028,0 4,2 0 0,0
24.03.2019 04:00:00 7,0 6,2 6,7 8,9 9,8 7,3 4 2 9 5 N 1028,1 4,2 0 0,0
24.03.2019 03:00:00 7,2 6,0 6,9 9,0 10,0 7,3 2 1 9 5 - 1028,4 5 0 0,0
24.03.2019 02:00:00 7,0 5,8 6,4 9,1 10,2 7,3 0 0 8 4 N 1028,7 6 0 0,0
24.03.2019 01:00:00 6,9 5,6 5,3 9,3 10,5 7,2 5 3 10 6 WNW 1029,0 5 0 0,0
24.03.2019 00:00:00 6,9 5,6 5,8 9,7 10,8 7,2 8 4 9 5 WNW 1029,3 6 0 0,0
23.03.2019 23:00:00 7,2 5,5 5,3 10,2 11,2 7,2 8 4 11 6 WNW 1029,4 7 0 0,0
23.03.2019 22:00:00 7,8 5,6 5,4 11,0 11,5 7,2 8 4 15 8 NW 1029,5 8 0 0,0
23.03.2019 21:00:00 8,6 5,8 7,5 11,7 11,8 7,2 9 5 22 12 NW 1029,3 10 0 0,0
23.03.2019 20:00:00 9,9 5,4 8,5 12,8 12,1 7,2 13 7 27 15 NNW 1028,3 9 0 0,0
23.03.2019 19:00:00 12,1 7,7 10,5 14,0 12,3 7,2 21 11 41 22 N 1026,8 6 0 0,0
23.03.2019 18:00:00 15,5 8,4 14,3 15,2 12,3 7,1 16 9 35 19 NW 1025,4 10 49 0,0
23.03.2019 17:00:00 17,2 6,3 18,0 16,1 12,1 7,1 15 8 29 16 NNW 1025,0 10 60 0,0
23.03.2019 16:00:00 17,9 6,4 20,8 16,5 11,7 7,1 16 9 29 16 NW 1024,9 40 60 0,0
23.03.2019 15:00:00 18,2 7,5 22,0 16,7 11,2 7,1 15 8 29 15 NNW 1025,0 10 60 0,0
23.03.2019 14:00:00 18,4 7,1 23,5 16,3 10,6 7,1 16 9 28 15 NNW 1025,2 10 60 0,0
23.03.2019 13:00:00 18,8 7,7 24,7 15,5 9,9 7,1 14 7 24 13 WNW 1025,3 40 60 0,0
23.03.2019 12:00:00 18,5 7,2 24,8 14,3 9,2 7,0 13 7 22 12 NW 1025,5 10 60 0,0
23.03.2019 11:00:00 17,2 7,9 24,3 12,7 8,6 7,0 12 7 23 13 WSW 1025,8 35 60 0,0
23.03.2019 10:00:00 15,0 7,0 20,6 10,6 8,2 7,0 9 5 17 9 SW 1026,2 35 59 0,0
23.03.2019 09:00:00 12,2 7,7 14,1 8,7 8,0 7,0 12 6 16 9 S 1026,5 35 60 0,0
23.03.2019 08:00:00 8,4 6,5 8,7 7,1 8,1 7,0 5 3 16 9 SSE 1027,0 10 60 0,0
23.03.2019 07:00:00 6,1 5,5 5,4 6,7 8,4 6,9 8 4 16 9 S 1027,1 10 34 0,0
23.03.2019 06:00:00 5,4 5,2 3,8 6,9 8,6 6,9 14 8 17 9 SSE 1027,1 12 0 0,0
23.03.2019 05:00:00 5,9 5,6 4,4 7,3 8,8 6,9 8 4 18 10 SSE 1027,2 7 0 0,0
23.03.2019 04:00:00 6,2 6,0 4,5 7,6 9,1 6,9 12 6 16 9 S 1027,5 6 0 0,0
23.03.2019 03:00:00 6,4 6,2 5,0 8,0 9,3 6,8 9 5 21 11 S 1027,6 9 0 0,0
23.03.2019 02:00:00 6,9 6,5 5,4 8,4 9,6 6,8 8 4 16 9 S 1028,0 9 0 0,0
23.03.2019 01:00:00 7,6 6,9 5,5 8,8 9,9 6,8 9 5 16 9 S 1028,5 8 0 0,0
23.03.2019 00:00:00 8,7 7,4 5,1 9,3 10,2 6,8 11 6 13 7 SSE 1028,9 10 0 0,0
22.03.2019 23:00:00 10,0 7,6 5,4 10,0 10,6 6,8 11 6 18 10 SSE 1029,0 10 0 0,0
22.03.2019 22:00:00 11,0 7,8 7,9 10,8 10,9 6,8 8 4 16 9 SSE 1029,1 10 0 0,0
22.03.2019 21:00:00 11,5 8,3 8,6 11,6 11,1 6,7 5 3 16 9 ESE 1029,5 10 0 0,0
22.03.2019 20:00:00 12,4 8,3 9,6 12,5 11,4 6,7 14 7 18 10 E 1029,7 13 0 0,0
22.03.2019 19:00:00 14,0 8,3 11,9 13,6 11,5 6,7 11 6 23 13 E 1029,4 10 0 0,0
22.03.2019 18:00:00 15,3 8,6 14,1 14,8 11,4 6,7 13 7 22 12 ENE 1029,1 10 57 0,0
22.03.2019 17:00:00 17,0 8,8 17,5 15,6 11,2 6,7 11 6 16 9 ENE 1029,2 10 60 0,0
22.03.2019 16:00:00 17,4 8,4 19,5 16,0 10,7 6,7 8 4 15 8 NE 1029,6 10 60 0,0
22.03.2019 15:00:00 17,0 8,4 21,3 15,9 10,1 6,7 10 6 17 9 NNE 1030,4 14 60 0,0
22.03.2019 14:00:00 16,9 8,2 22,0 15,3 9,4 6,7 5 3 13 7 - 1030,9 10 60 0,0
22.03.2019 13:00:00 16,3 8,7 20,5 14,1 8,6 6,7 8 4 19 10 - 1031,9 10 60 0,0
22.03.2019 12:00:00 14,6 7,8 19,0 12,6 7,9 6,6 8 4 16 9 E 1032,7 10 60 0,0
22.03.2019 11:00:00 13,3 7,2 18,2 10,8 7,4 6,6 8 4 15 8 ENE 1033,5 10 60 0,0
22.03.2019 10:00:00 11,7 5,7 16,2 9,0 7,1 6,6 4 2 11 6 - 1033,7 10 60 0,0
22.03.2019 09:00:00 8,9 5,6 11,1 7,3 7,0 6,6 5 3 11 6 S 1033,8 10 60 0,0
22.03.2019 08:00:00 6,7 5,0 7,9 5,9 7,0 6,6 2 1 20 11 - 1034,1 10 60 0,0
22.03.2019 07:00:00 4,5 3,9 3,9 5,5 7,2 6,5 8 4 18 10 SSW 1033,8 8 19 0,0
22.03.2019 06:00:00 3,7 3,4 2,4 5,8 7,4 6,5 8 4 21 11 SSW 1033,6 8 0 0,0
22.03.2019 05:00:00 4,3 3,8 2,9 6,1 7,7 6,5 14 8 19 10 S 1033,5 10 0 0,0
22.03.2019 04:00:00 4,6 4,0 3,0 6,4 7,9 6,5 2 1 18 10 - 1033,4 10 0 0,0
22.03.2019 03:00:00 5,0 4,2 3,4 6,8 8,1 6,5 4 2 21 11 S 1033,6 10 0 0,0
22.03.2019 02:00:00 6,0 4,7 4,4 7,1 8,4 6,5 5 3 20 11 S 1033,6 10 0 0,0
22.03.2019 01:00:00 6,4 4,9 4,6 7,5 8,6 6,4 8 4 18 10 S 1033,7 10 0 0,0
22.03.2019 00:00:00 7,0 4,9 5,1 7,9 8,9 6,4 9 5 18 10 SSW 1033,7 10 0 0,0
21.03.2019 23:00:00 7,8 5,2 5,1 8,4 9,2 6,4 8 4 15 8 S 1033,6 10 0 0,0
21.03.2019 22:00:00 9,4 5,4 4,9 9,0 9,5 6,4 8 4 11 6 SSW 1033,6 10 0 0,0
21.03.2019 21:00:00 10,7 5,9 4,3 9,8 9,8 6,4 0 0 4 2 N 1033,4 10 0 0,0
21.03.2019 20:00:00 10,8 5,9 4,8 10,8 10,1 6,4 2 1 5 3 - 1033,3 10 0 0,0
21.03.2019 19:00:00 11,6 5,9 8,5 12,0 10,2 6,4 2 1 15 8 - 1033,0 10 11 0,0
21.03.2019 18:00:00 12,9 6,3 11,6 13,2 10,1 6,4 8 4 16 9 N 1032,6 10 60 0,0
21.03.2019 17:00:00 13,8 6,3 15,5 14,0 9,9 6,4 11 6 22 12 N 1032,6 10 60 0,0
21.03.2019 16:00:00 14,4 5,9 18,5 14,3 9,4 6,4 9 5 16 9 WNW 1032,5 10 60 0,0
21.03.2019 15:00:00 14,2 5,6 20,3 14,2 8,9 6,4 9 5 21 11 NNW 1033,2 10 60 0,0
21.03.2019 14:00:00 14,1 5,5 20,4 13,6 8,2 6,4 11 6 22 12 NNW 1033,8 10 60 0,0
21.03.2019 13:00:00 13,5 5,3 20,7 12,7 7,5 6,4 11 6 20 11 WNW 1034,4 35 60 0,0
21.03.2019 12:00:00 12,3 3,6 20,2 11,3 6,8 6,4 9 5 22 12 WNW 1035,2 10 60 0,0
21.03.2019 11:00:00 11,8 4,0 19,1 9,8 6,3 6,4 8 4 18 10 WNW 1035,6 10 60 0,0
21.03.2019 10:00:00 10,4 2,5 16,2 8,0 5,9 6,3 11 6 16 9 W 1035,6 40 60 0,0
21.03.2019 09:00:00 8,6 0,6 13,1 6,0 5,7 6,3 8 4 13 7 SW 1035,6 10 60 0,0
21.03.2019 08:00:00 5,8 0,2 6,9 4,7 5,8 6,3 8 4 15 8 SSW 1035,8 10 14 0,0
21.03.2019 07:00:00 3,8 -0,1 2,9 4,6 5,9 6,3 11 6 18 10 SSW 1035,8 10 0 0,0
21.03.2019 06:00:00 3,9 0,0 2,9 5,0 6,0 6,3 13 7 16 9 S 1035,2 45 0 0,0
21.03.2019 05:00:00 4,9 -0,6 4,0 5,1 6,1 6,3 9 5 13 7 SSW 1035,1 10 0 0,0
21.03.2019 04:00:00 5,3 -0,7 4,6 5,1 6,2 6,3 9 5 13 7 SW 1034,9 10 0 0,0
21.03.2019 03:00:00 5,0 -0,7 4,3 5,2 6,3 6,3 9 5 17 9 SW 1035,0 10 0 0,0
21.03.2019 02:00:00 4,5 -0,6 4,1 5,2 6,4 6,3 13 7 18 10 SSW 1035,4 10 0 0,0
21.03.2019 01:00:00 4,9 -0,9 4,4 5,1 6,6 6,3 13 7 16 9 S 1035,8 45 0 0,0
21.03.2019 00:00:00 4,8 -1,3 3,4 5,2 6,9 6,3 11 6 18 10 SSW 1035,5 10 0 0,0
20.03.2019 23:00:00 4,6 -1,3 2,5 5,7 7,2 6,3 9 5 18 10 SSW 1035,1 10 0 0,0
20.03.2019 22:00:00 4,9 -1,3 2,6 6,2 7,5 6,3 9 5 15 8 SSW 1034,9 10 0 0,0
20.03.2019 21:00:00 7,0 -1,3 1,5 6,9 7,8 6,3 9 5 11 6 SW 1034,9 10 0 0,0
20.03.2019 20:00:00 7,6 -1,8 1,3 7,9 8,1 6,3 4 2 8 4 WSW 1034,6 10 0 0,0
20.03.2019 19:00:00 8,1 -1,1 3,7 9,0 8,3 6,3 6 3 13 7 WNW 1034,2 60 10 0,0
20.03.2019 18:00:00 9,4 -1,2 7,0 10,2 8,3 6,3 8 4 18 10 W 1033,7 10 60 0,0
20.03.2019 17:00:00 10,5 -0,4 11,4 11,1 8,1 6,3 11 6 22 12 W 1033,6 10 60 0,0
20.03.2019 16:00:00 10,3 -2,4 13,4 11,6 7,7 6,3 11 6 22 12 W 1033,5 10 60 0,0
20.03.2019 15:00:00 10,1 -2,3 15,3 11,5 7,1 6,3 15 8 29 15 WNW 1033,8 10 60 0,0
20.03.2019 14:00:00 9,8 -1,4 15,5 10,9 6,5 6,3 12 6 25 14 W 1034,1 55 60 0,0
20.03.2019 13:00:00 8,7 -1,9 14,5 9,9 5,9 6,3 13 7 25 14 WSW 1034,8 10 59 0,0
20.03.2019 12:00:00 8,5 -1,6 14,5 8,8 5,3 6,3 18 10 33 18 W 1035,0 10 60 0,0
20.03.2019 11:00:00 7,4 -1,0 11,0 7,6 4,8 6,3 9 5 24 13 - 1035,0 10 55 0,0
20.03.2019 10:00:00 6,6 -0,3 12,9 5,8 4,4 6,3 9 5 18 10 WSW 1034,8 10 60 0,0
20.03.2019 09:00:00 5,2 -0,5 9,0 3,8 4,3 6,3 11 6 18 10 WSW 1034,6 10 60 0,0
20.03.2019 08:00:00 3,0 -0,6 3,8 2,4 4,4 6,3 13 7 13 7 SSW 1034,4 10 60 0,0
20.03.2019 07:00:00 1,3 -1,1 -1,4 2,4 4,6 6,3 11 6 11 6 SW 1033,8 10 18 0,0
20.03.2019 06:00:00 1,1 -1,8 -2,7 2,6 4,8 6,3 8 4 11 6 WSW 1033,4 10 0 0,0
20.03.2019 05:00:00 2,3 -0,9 -2,7 3,1 4,9 6,3 8 4 16 9 WSW 1033,1 10 0 0,0
20.03.2019 04:00:00 3,1 -0,6 -0,5 3,5 5,1 6,3 5 3 9 5 WSW 1032,6 10 0 0,0
20.03.2019 03:00:00 3,3 -0,4 0,8 3,8 5,2 6,3 5 3 9 5 WSW 1032,2 10 0 0,0
20.03.2019 02:00:00 3,4 -0,3 1,7 3,9 5,3 6,3 5 3 9 5 WNW 1032,4 10 0 0,0
20.03.2019 01:00:00 3,6 -0,3 1,7 4,1 5,5 6,3 5 3 16 9 W 1032,0 10 0 0,0
20.03.2019 00:00:00 3,9 -0,3 2,2 4,4 5,6 6,3 8 4 18 10 W 1031,7 10 0 0,0
19.03.2019 23:00:00 4,3 0,0 3,0 4,6 5,8 6,3 13 7 21 11 W 1031,3 40 0 0,0
19.03.2019 22:00:00 4,5 0,2 3,1 4,8 5,9 6,3 8 4 13 7 W 1030,8 10 0 0,0
19.03.2019 21:00:00 4,5 0,3 3,2 5,0 6,1 6,3 8 4 16 9 WSW 1030,4 10 0 0,0
19.03.2019 20:00:00 4,9 0,0 3,4 5,3 6,3 6,4 8 4 18 10 W 1029,8 10 0 0,0
19.03.2019 19:00:00 4,3 -0,1 1,9 5,8 6,4 6,4 8 4 24 13 WNW 1029,4 50 0 0,0
19.03.2019 18:00:00 5,2 -0,2 4,4 6,5 6,5 6,4 13 7 26 14 WNW 1028,5 10 0 0,0

tt = temperature
td = dewpoint
tt 5cm = temperature 5cm
tt -5cm = temperature -5cm
tt -20cm = temperature -20cm
tt -100cm = temperature -100cm
ff = wind speed
fx = gusts
dd = wind direction
ppp = reduced air pressure
vv = visibility
sd = sunshine duration
rr = precipitation

Next stations